#timestamp,LO_Frequency,Hit,StdDev 
1563019215.8,286047001.1,N
1563019235.6,286047001.2,N
1563019255.5,286047001.1,N
1563019275.3,286046998.8,N
1563019295.2,286047000.8,N
1563019315.9,286046996.8,Y
1563019335.7,286046999.2,P
1563019355.6,286047000.8,N
1563019375.4,286047000.7,N
1563019395.3,286046998.6,N
1563019415.1,286047001.2,N
1563019416.0,286047001.2,N
1563019435.8,286047000.5,N
1563019455.7,286047002.1,N
1563019475.5,286047002.4,N
1563019495.3,286047000.5,N
1563019515.2,286046998.5,N
1563019535.0,286047001.1,N
1563019535.9,286047001.1,N
1563019555.8,286046998.6,N
1563019575.6,286047001.2,N
1563019595.4,286046998.8,N
1563019615.3,286046999.1,N
1563019635.1,286046998.3,N
1563019655.9,286046998.9,N
1563019675.7,286046999.2,N
1563019695.5,286046998.8,N
1563019715.4,286046998.6,N
1563019735.2,286047001.1,N
1563019755.0,286047000.2,N
1563019755.9,286047000.2,N
1563019775.8,286047002.1,N
1563019795.6,286047002.2,N
1563019815.5,286047001.9,N
1563019835.3,286047002.4,N
1563019855.1,286047002.8,N
1563019875.9,286046998.3,N
1563019895.7,286046998.9,N
1563019915.6,286047000.6,N
1563019935.4,286047002.6,N
1563019955.2,286046998.2,N
1563019975.1,286046999.5,N
1563019976.0,286046999.5,N
1563019995.8,286046998.1,N
1563020015.6,286046999.1,N
1563020035.5,286046998.6,N
1563020055.3,286047000.4,N
1563020075.2,286047002.4,N
1563020095.9,286047002.3,N
1563020115.7,286046999.8,N
1563020135.6,286047000.1,N
1563020155.4,286047000.1,N
1563020175.3,286046998.1,N
1563020195.1,286046999.7,N
1563020196.0,286046999.7,N
1563020215.8,286047001.1,N
1563020235.7,286047000.6,N
1563020255.5,286047001.2,N
1563020275.3,286046998.6,N
1563020295.2,286047001.0,N
1563020315.0,286047001.0,N
1563020315.9,286047001.0,N
1563020335.8,286046998.3,N
1563020355.6,286046998.3,N
1563020375.4,286047001.2,N
1563020395.3,286046998.8,N
1563020415.1,286046999.0,N
1563020435.8,286047000.7,N
1563020455.7,286047000.3,N
1563020475.5,286047002.8,N
1563020495.4,286047002.8,N
1563020515.2,286046999.7,N
1563020535.0,286047000.6,N
1563020535.9,286047000.6,N
1563020555.8,286047001.0,N
1563020575.6,286046998.4,N
1563020595.5,286047000.0,N
1563020615.3,286046998.3,N
1563020635.1,286046998.6,N
1563020655.9,286046999.7,N
1563020675.7,286047002.6,N
1563020695.6,286047002.6,N
1563020715.4,286047002.7,N
1563020735.2,286047002.3,N
1563020755.1,286047001.6,N
1563020756.0,286047001.6,N
1563020775.8,286047001.5,N
1563020795.7,286047004.3,N
1563020815.5,286047003.7,N
1563020835.3,286047004.7,N
1563020855.2,286047006.0,Y
1563020875.0,286047004.1,P
1563020875.9,286047004.1,N
1563020895.8,286047003.6,N
1563020915.6,286047005.9,Y
1563020935.4,286047002.2,P
1563020955.3,286047002.2,P
1563020975.1,286047002.4,P
1563020995.9,286047002.8,Y
1563021015.7,286046998.5,P
1563021035.5,286046998.4,N
1563021055.4,286046998.9,N
1563021075.2,286046998.2,N
1563021095.0,286046999.0,N
1563021095.9,286046999.0,N
1563021115.8,286046999.3,N
1563021135.6,286046999.0,N
1563021155.5,286046998.2,N
1563021175.3,286046998.9,N
1563021195.1,286046998.9,N
1563021215.9,286046999.4,N
1563021235.7,286046999.4,N
1563021255.6,286046998.9,N
1563021275.4,286046996.7,Y
1563021295.2,286046999.1,P
1563021315.1,286046997.0,P
1563021316.0,286046997.0,P
1563021335.8,286046997.7,N
1563021355.7,286046996.7,Y
1563021375.5,286046998.6,P
1563021395.3,286046999.3,N
1563021415.2,286046998.8,N
1563021435.0,286046999.5,N
1563021435.9,286046999.5,N
1563021455.8,286046996.9,Y
1563021475.6,286046999.3,P
1563021495.4,286046998.9,P
1563021515.3,286046998.4,P
1563021535.1,286046998.8,Y
1563021555.8,286047001.2,P
1563021575.7,286046998.1,N
1563021595.5,286046998.2,N
1563021615.4,286046998.3,N
1563021635.2,286047000.8,N
1563021655.0,286047001.0,N
1563021655.9,286047001.0,N
1563021675.8,286047000.7,N
1563021695.6,286046998.1,N
1563021715.5,286046998.9,N
1563021735.3,286046998.7,N
1563021755.1,286046998.4,N
1563021775.9,286046999.1,N
1563021795.7,286046999.5,N
1563021815.5,286046998.8,N
1563021835.4,286046999.1,N
1563021855.2,286046998.4,N
1563021875.1,286046999.3,N
1563021876.0,286046999.3,N
1563021895.8,286046999.1,N
1563021915.6,286046999.2,N
1563021935.5,286046999.2,N
1563021955.3,286046998.9,N
1563021975.2,286046999.2,N
1563021995.9,286046998.6,N
1563022015.7,286047001.1,N
1563022035.6,286046998.5,N
1563022055.4,286046998.2,N
1563022075.3,286047000.4,N
1563022095.1,286046998.8,N
1563022096.0,286046998.8,N
1563022115.8,286046998.7,N
1563022135.7,286046999.3,N
1563022155.5,286046999.1,N
1563022175.4,286046999.5,N
1563022195.2,286046996.7,Y
1563022215.0,286046997.0,P
1563022215.9,286046997.0,N
1563022235.5,286046999.3,N
1563022255.4,286046998.4,N
1563022275.2,286046998.2,N
1563022295.0,286047000.7,N
1563022295.9,286047000.7,N
1563022315.8,286046998.2,N
1563022335.6,286046998.1,N
1563022355.5,286047000.7,N
1563022375.3,286047000.7,N
1563022395.1,286047001.0,N
1563022415.9,286047000.4,N
1563022435.7,286047000.9,N
1563022455.5,286047001.0,N
1563022475.4,286047000.7,N
1563022495.2,286046998.3,N
1563022515.1,286047001.1,N
1563022516.0,286047001.1,N
1563022535.8,286047000.4,N
1563022555.6,286047000.2,N
1563022575.5,286047000.3,N
1563022595.3,286047000.5,N
1563022615.1,286047002.4,N
1563022635.9,286046999.9,N
1563022655.7,286046999.9,N
1563022675.6,286047002.4,N
1563022695.4,286047000.2,N
1563022715.2,286047000.8,N
1563022735.1,286047001.1,N
1563022736.0,286047001.1,N
1563022755.8,286046998.8,N
1563022775.7,286046998.1,N
1563022795.5,286046999.0,N
